EW6709 Weather Reports


time (UTC)temp
F
wind
direction
speed
knots
gust
knots
rain 1hr
in
rain 24hr
in
rain mn
in
humidity
%
barometer
mb
20260508064513 53 76 0.0 0.0 0.00 0.47 0.00 84 1014.4
20260508063012 53 76 0.0 0.0 0.00 0.47 0.00 84 1014.3
20260508061511 53 76 0.0 0.0 0.00 0.47 0.00 84 1014.2
20260508060014 53 76 0.0 0.0 0.00 0.47 0.00 84 1014.4
20260508054518 53 76 0.0 0.0 0.00 0.48 0.00 84 1014.3
20260508053008 53 76 0.0 0.0 0.00 0.48 0.00 84 1014.3
20260508051506 53 76 0.0 0.0 0.00 0.48 0.00 84 1014.1
20260508050006 54 76 0.0 0.0 0.00 0.48 0.00 84 1014.2
20260508044503 54 76 0.0 0.0 0.00 0.62 0.00 84 1014.1
20260508043001 54 76 0.0 0.0 0.00 0.62 0.00 84 1014.1
20260508041600 54 76 0.0 0.0 0.00 0.62 0.00 84 1014.1
20260508040100 54 76 0.0 0.0 0.00 0.62 0.00 84 1014.0
20260508034557 54 76 0.0 0.0 0.00 0.68 0.62 84 1013.9
20260508033056 54 76 0.0 0.0 0.00 0.68 0.62 84 1013.6
20260508031600 54 76 0.0 0.0 0.00 0.68 0.62 84 1013.3
20260508030104 54 76 0.0 0.0 0.00 0.68 0.62 84 1013.4
20260508024605 54 76 0.0 0.0 0.00 0.68 0.62 84 1013.2
20260508023053 55 76 0.0 0.0 0.00 0.68 0.62 84 1013.1
20260508021553 54 76 0.0 0.0 0.00 0.68 0.62 84 1012.9
20260508020104 55 76 0.0 0.0 0.00 0.68 0.62 84 1012.6
20260508014553 55 76 0.0 0.0 0.00 0.68 0.62 84 1012.7
20260508013050 55 76 0.0 0.0 0.00 0.68 0.62 85 1012.5
20260508011552 55 76 0.0 0.0 0.01 0.68 0.62 84 1012.0
20260508010052 55 107 0.0 0.0 0.02 0.68 0.62 84 1011.5
20260508004549 55 107 0.0 0.0 0.02 0.68 0.62 85 1012.0
20260508003049 55 107 0.0 0.0 0.02 0.68 0.62 85 1011.5
20260508001547 55 205 0.0 0.0 0.01 0.67 0.61 85 1011.9
20260508000046 55 163 0.0 0.0 0.00 0.66 0.60 85 1011.3
20260507234546 55 67 0.0 0.0 0.00 0.66 0.60 85 1010.7
20260507233045 55 58 0.0 0.0 0.00 0.66 0.60 85 1010.6
20260507231546 55 47 0.0 7.0 0.00 0.66 0.60 85 1010.5
20260507230044 55 90 0.0 7.8 0.00 0.66 0.60 85 1010.5
20260507224545 56 44 0.0 0.0 0.00 0.66 0.60 84 1010.6
20260507223042 55 49 0.0 0.0 0.00 0.66 0.60 84 1010.1
20260507221540 55 78 0.0 5.2 0.00 0.66 0.60 85 1010.0
20260507220040 55 39 0.0 0.9 0.00 0.66 0.60 84 1010.0
20260507214546 55 53 0.0 2.6 0.00 0.66 0.60 84 1010.4
20260507213039 55 57 0.0 3.5 0.00 0.66 0.60 85 1010.3
20260507211541 55 355 0.0 5.2 0.00 0.66 0.60 84 1010.1
20260507210037 56 69 0.0 7.0 0.00 0.66 0.60 84 1009.8
20260507204533 56 68 0.0 1.7 0.00 0.66 0.60 84 1009.3
20260507203036 57 10 0.0 0.9 0.00 0.66 0.60 84 1009.5
20260507201532 57 84 0.0 1.7 0.00 0.66 0.60 84 1009.1
20260507200030 58 63 0.0 0.9 0.00 0.66 0.60 84 1009.3
20260507194531 57 68 0.0 4.3 0.00 0.75 0.60 84 1009.3
20260507193034 57 126 0.0 6.1 0.00 0.75 0.60 84 1009.3
20260507191527 58 332 0.0 7.8 0.01 0.75 0.60 84 1009.2
20260507190025 58 11 0.0 7.0 0.01 0.75 0.60 84 1009.6
20260507184522 59 225 0.0 7.8 0.01 0.80 0.60 84 1008.9
20260507183036 59 130 0.0 0.9 0.01 0.80 0.60 84 1009.1
20260507181516 61 296 0.0 0.0 0.00 0.79 0.59 84 1009.1
20260507180019 61 346 0.0 5.2 0.00 0.79 0.59 85 1008.7
20260507174515 68 217 0.0 4.3 0.00 0.79 0.59 83 1009.0
20260507173012 69 261 0.0 2.6 0.01 0.79 0.59 81 1008.7
20260507171511 68 157 0.0 0.0 0.01 0.79 0.59 82 1008.2
20260507170009 69 96 0.0 0.0 0.05 0.79 0.59 82 1007.7
20260507164508 69 128 0.0 0.0 0.05 0.79 0.59 82 1008.1
20260507163003 68 225 0.0 0.0 0.04 0.78 0.57 82 1008.6
20260507161503 68 225 0.0 0.0 0.04 0.78 0.57 82 1009.3
20260507160007 68 225 0.0 0.0 0.01 0.74 0.54 82 1009.7
20260507154502 68 225 0.0 0.0 0.01 0.74 0.54 82 1009.5
20260507153001 68 225 0.0 0.0 0.03 0.74 0.54 82 1008.9
20260507151600 68 234 0.0 0.9 0.04 0.74 0.54 82 1009.1
20260507150057 67 342 0.0 2.6 0.06 0.74 0.54 82 1009.3
20260507144554 67 239 0.0 0.0 0.07 0.73 0.53 82 1009.5
20260507143055 67 265 0.0 1.7 0.10 0.71 0.51 83 1009.7
20260507141552 67 238 0.0 2.6 0.11 0.70 0.50 83 1009.6
20260507134549 67 295 0.0 0.0 0.13 0.66 0.46 83 1009.9
20260507133047 67 295 0.0 0.0 0.08 0.61 0.41 83 1010.2
20260507131547 67 221 0.0 0.0 0.07 0.59 0.39 83 1010.1
20260507124600 66 240 0.0 0.9 0.01 0.53 0.33 83 1010.1
20260507123045 66 240 0.0 0.0 0.01 0.53 0.33 83 1010.1
20260507121545 66 242 0.0 0.0 0.00 0.52 0.32 83 1010.0
20260507120042 66 208 0.0 0.9 0.00 0.52 0.32 83 1010.2
20260507114558 66 256 0.0 0.0 0.00 0.52 0.32 83 1010.2
20260507113039 66 256 0.0 0.0 0.00 0.52 0.32 83 1010.5
20260507111539 66 256 0.0 0.9 0.00 0.52 0.32 83 1010.6
20260507110044 65 196 0.0 0.9 0.01 0.52 0.32 83 1010.7
20260507104548 65 163 0.0 0.0 0.02 0.52 0.32 83 1010.2
20260507103038 65 163 0.0 0.0 0.02 0.52 0.32 83 1010.2
20260507101537 65 163 0.0 0.0 0.02 0.52 0.32 83 1010.2
20260507100038 65 216 0.0 0.0 0.02 0.51 0.31 83 1010.2
20260507094536 65 225 0.0 0.0 0.01 0.50 0.30 84 1010.2
20260507093039 65 163 0.0 0.0 0.03 0.50 0.30 84 1010.2
20260507091540 65 163 0.0 0.0 0.06 0.50 0.30 84 1010.2
20260507090034 64 163 0.0 0.0 0.07 0.49 0.28 84 1010.3
20260507084534 64 163 0.0 0.0 0.08 0.48 0.28 84 1010.3
20260507083032 64 163 0.0 2.6 0.08 0.47 0.27 84 1010.5
20260507081531 64 337 0.0 0.0 0.05 0.44 0.24 84 1011.3
20260507080030 64 337 0.0 0.0 0.05 0.42 0.22 84 1011.3
20260507074529 65 337 0.0 0.0 0.05 0.40 0.20 84 1010.8
20260507073029 65 330 0.0 0.0 0.04 0.39 0.19 84 1011.5
20260507071526 65 330 0.0 0.0 0.04 0.39 0.19 84 1011.7
20260507070025 65 61 0.0 0.0 0.01 0.36 0.16 84 1011.1